Weather Roundup
Issued by NWS Chicago, IL

Home | Current Version | Previous Version | Graphics & Text | Print | Product List | Glossary On
Versions: 1 2 3 4 5 6 7 8 9 10 11 12 13 14 15 16 17 18 19 20 21 22 23 24 25 26 27 28 29 30 31 32 33 34 35 36 37 38 39 40 41 42 43 44 45 46 47 48 49 50
000
NZUS59 KLOT 131203
HRRLOT

CHICAGO AREA WEATHER ROUNDUP
NATIONAL WEATHER SERVICE CHICAGO/ROMEOVILLE IL
600 AM CST SAT FEB 13 2016

NOTE: "FAIR" INDICATES FEW OR NO CLOUDS BELOW 12,000 FEET WITH NO
SIGNIFICANT WEATHER AND/OR OBSTRUCTIONS TO VISIBILITY.

* THESE STATIONS ARE NOT UNDER NWS QUALITY CONTROL. THEY ALSO MAY NOT
  REPORT WEATHER SUCH AS PRECIPITATION OR FOG.

ILZ005-006-012>014-019>023-131300-
NORTHEAST ILLINOIS

CITY           SKY/WX    TMP DP  RH WIND       PRES   REMARKS
OHARE          PTCLDY     3 -10  54 NW13      30.55R WCI -14
6HR MIN TEMP:   3; 6HR MAX TEMP:   7;

MIDWAY         PTCLDY     5 -11  47 NW10      30.56R WCI -10
6HR MIN TEMP:   5; 6HR MAX TEMP:   9;

AURORA         CLOUDY     3  -7  63 NW6       30.57S WCI  -8
6HR MIN TEMP:   3; 6HR MAX TEMP:   8;

WAUKEGAN       CLEAR      1 -11  57 NW8       30.53R WCI -13
6HR MIN TEMP:   1; 6HR MAX TEMP:   4;

DUPAGE AIRPORT CLEAR      2 -11  54 NW12      30.55R WCI -15
6HR MIN TEMP:   2; 6HR MAX TEMP:   6;

WHEELING       CLEAR      2 -11  54 NW10      30.57R WCI -14
6HR MIN TEMP:   2; 6HR MAX TEMP:   6;

$$

WIZ051-052-058>065-066-070>072-131300-
SOUTHEAST WISCONSIN

CITY           SKY/WX    TMP DP  RH WIND       PRES   REMARKS
MILWAUKEE      PTCLDY     1 -13  51 NW10      30.53R WCI -15
6HR MIN TEMP:   1; 6HR MAX TEMP:   4;

KENOSHA*       CLEAR      1 -11  57 NW10      30.53R WCI -15
RACINE*        CLEAR      1 -13  51 NW9       30.54R WCI -14
BURLINGTON     CLEAR     -2 -13  57 NW12      30.54R WCI -19
WAUKESHA       CLEAR     -2 -15  55 W15       30.53R WCI -22
$$

INZ001>003-010>013-019-020-131300-
NORTHWEST INDIANA

CITY           SKY/WX    TMP DP  RH WIND       PRES   REMARKS
GARY*          CLEAR      7 -11  43 W9G21     30.56R WCI  -7
MICHIGAN CITY* NOT AVBL
RENSSELAER*    NOT AVBL
VALPARAISO     CLOUDY     5  -6  60 W13       30.51R WCI -12
$$

LMZ740>746-131300-
SOUTHERN LAKE MICHIGAN

STATION/POSITION TIME  SKY/WX   TEMP WIND        PRES    VSBY
                                AIR  DIR/SP/G
                 (UTC)          (F)  (DEG/KT/KT) (MB)    (MI)
HARRISON CRIB    1100             6  310/ 17/ 20   N/A
BURNHAM HARBOR   1200             6  290/  8/ 15   N/A
CALUMET HARBOR   1100             5  300/ 11/ 14 1033.5R
BURNS HARBOR     1107             9  300/ 18/ 22 1033.5R
MICHIGAN CITY    1100            12  310/ 24/ 26   N/A
$$

ABBREVIATIONS USED IN REMARKS
   TC - TEMPERATURE IN CELSIUS
  WCI - WIND CHILL INDEX
   HX - HEAT INDEX
  VSB - VISIBILITY
$$



USA.gov is the U.S. government's official web portal to all federal, state and local government web resources and services.